TimeCST,TemperatureF,Dew PointF,Humidity,Sea Level PressureIn,VisibilityMPH,Wind Direction,Wind SpeedMPH,Gust SpeedMPH,PrecipitationIn,Events,Conditions,WindDirDegrees,DateUTC
12:13 AM,-14.8,-18.4,84,30.43,10.0,Calm,Calm,-,N/A,,Scattered Clouds,0,2014-01-02 06:13:00
12:34 AM,-13.0,-18.4,77,30.43,10.0,NW,4.6,-,N/A,,Scattered Clouds,320,2014-01-02 06:34:00
12:54 AM,-11.2,-16.6,77,30.43,10.0,NNW,4.6,-,N/A,,Scattered Clouds,340,2014-01-02 06:54:00
1:13 AM,-11.2,-16.6,77,30.42,10.0,NNW,3.5,-,N/A,,Clear,340,2014-01-02 07:13:00
1:34 AM,-13.0,-18.4,77,30.42,10.0,NNW,3.5,-,N/A,,Clear,340,2014-01-02 07:34:00
1:54 AM,-14.8,-18.4,84,30.42,10.0,North,4.6,-,N/A,,Clear,350,2014-01-02 07:54:00
2:14 AM,-14.8,-18.4,84,30.43,10.0,North,4.6,-,N/A,,Clear,350,2014-01-02 08:14:00
2:33 AM,-14.8,-20.2,77,30.43,10.0,Calm,Calm,-,N/A,,Clear,0,2014-01-02 08:33:00
2:54 AM,-14.8,-18.4,84,30.44,10.0,North,3.5,-,N/A,,Clear,350,2014-01-02 08:54:00
3:14 AM,-14.8,-20.2,77,30.44,10.0,North,4.6,-,N/A,,Clear,350,2014-01-02 09:14:00
3:33 AM,-14.8,-20.2,77,30.44,10.0,North,4.6,-,N/A,,Clear,360,2014-01-02 09:33:00
3:54 AM,-14.8,-20.2,77,30.44,10.0,Calm,Calm,-,N/A,,Clear,0,2014-01-02 09:54:00
4:13 AM,-14.8,-20.2,77,30.44,10.0,North,3.5,-,N/A,,Clear,350,2014-01-02 10:13:00
4:33 AM,-14.8,-20.2,77,30.44,10.0,NNW,5.8,-,N/A,,Clear,340,2014-01-02 10:33:00
4:53 AM,-14.8,-20.2,77,30.45,10.0,Calm,Calm,-,N/A,,Clear,0,2014-01-02 10:53:00
5:14 AM,-16.6,-22.0,76,30.45,10.0,Calm,Calm,-,N/A,,Clear,0,2014-01-02 11:14:00
5:33 AM,-18.4,-23.8,76,30.45,10.0,Calm,Calm,-,N/A,,Clear,0,2014-01-02 11:33:00
5:53 AM,-18.4,-23.8,76,30.46,10.0,WNW,3.5,-,N/A,,Clear,300,2014-01-02 11:53:00
6:13 AM,-20.2,-25.6,76,30.46,10.0,NW,3.5,-,N/A,,Clear,310,2014-01-02 12:13:00
6:33 AM,-20.2,-25.6,76,30.46,10.0,NNW,3.5,-,N/A,,Clear,340,2014-01-02 12:33:00
6:53 AM,-18.4,-23.8,76,30.46,10.0,Calm,Calm,-,N/A,,Clear,0,2014-01-02 12:53:00
7:13 AM,-18.4,-23.8,76,30.46,10.0,NNW,5.8,-,N/A,,Clear,340,2014-01-02 13:13:00
7:34 AM,-18.4,-25.6,70,30.47,10.0,NW,3.5,-,N/A,,Clear,320,2014-01-02 13:34:00
7:54 AM,-20.2,-27.4,69,30.47,5.0,Calm,Calm,-,N/A,,Haze,0,2014-01-02 13:54:00
8:13 AM,-20.2,-27.4,69,30.47,10.0,Calm,Calm,-,N/A,,Clear,0,2014-01-02 14:13:00
8:34 AM,-20.2,-27.4,69,30.49,10.0,West,4.6,-,N/A,,Clear,270,2014-01-02 14:34:00
8:53 AM,-18.4,-25.6,70,30.49,10.0,WNW,3.5,-,N/A,,Clear,290,2014-01-02 14:53:00
9:14 AM,-18.4,-23.8,76,30.49,5.0,Calm,Calm,-,N/A,,Haze,0,2014-01-02 15:14:00
9:33 AM,-16.6,-23.8,70,30.50,10.0,Calm,Calm,-,N/A,,Clear,0,2014-01-02 15:33:00
9:53 AM,-14.8,-22.0,70,30.51,10.0,Calm,Calm,-,N/A,,Clear,0,2014-01-02 15:53:00
10:14 AM,-14.8,-20.2,77,30.52,10.0,Calm,Calm,-,N/A,,Clear,0,2014-01-02 16:14:00
10:33 AM,-11.2,-18.4,70,30.51,10.0,Calm,Calm,-,N/A,,Clear,0,2014-01-02 16:33:00
10:53 AM,-9.4,-18.4,65,30.51,10.0,Calm,Calm,-,N/A,,Clear,0,2014-01-02 16:53:00
11:14 AM,-9.4,-16.6,71,30.50,10.0,Calm,Calm,-,N/A,,Clear,0,2014-01-02 17:14:00
11:34 AM,-9.4,-16.6,71,30.49,10.0,Calm,Calm,-,N/A,,Clear,0,2014-01-02 17:34:00
11:54 AM,-7.6,-14.8,71,30.50,10.0,West,3.5,-,N/A,,Clear,270,2014-01-02 17:54:00
12:13 PM,-7.6,-14.8,71,30.50,10.0,West,3.5,-,N/A,,Clear,270,2014-01-02 18:13:00
12:33 PM,-7.6,-14.8,71,30.49,10.0,WNW,3.5,-,N/A,,Clear,290,2014-01-02 18:33:00
12:53 PM,-5.8,-14.8,65,30.49,10.0,West,3.5,-,N/A,,Clear,280,2014-01-02 18:53:00
1:13 PM,-5.8,-14.8,65,30.47,10.0,Calm,Calm,-,N/A,,Clear,0,2014-01-02 19:13:00
1:33 PM,-5.8,-13.0,71,30.47,10.0,West,3.5,-,N/A,,Clear,280,2014-01-02 19:33:00
1:54 PM,-5.8,-13.0,71,30.47,10.0,Calm,Calm,-,N/A,,Clear,0,2014-01-02 19:54:00
2:13 PM,-5.8,-13.0,71,30.46,10.0,Calm,Calm,-,N/A,,Clear,0,2014-01-02 20:13:00
2:33 PM,-4.0,-13.0,65,30.46,10.0,Calm,Calm,-,N/A,,Clear,0,2014-01-02 20:33:00
2:53 PM,-4.0,-13.0,65,30.47,10.0,NW,3.5,-,N/A,,Clear,310,2014-01-02 20:53:00
3:13 PM,-5.8,-14.8,65,30.47,10.0,Calm,Calm,-,N/A,,Clear,0,2014-01-02 21:13:00
3:34 PM,-5.8,-13.0,71,30.47,10.0,Calm,Calm,-,N/A,,Clear,0,2014-01-02 21:34:00
3:53 PM,-5.8,-13.0,71,30.46,10.0,Calm,Calm,-,N/A,,Clear,0,2014-01-02 21:53:00
4:14 PM,-5.8,-13.0,71,30.46,10.0,Calm,Calm,-,N/A,,Clear,0,2014-01-02 22:14:00
4:34 PM,-5.8,-13.0,71,30.45,10.0,Calm,Calm,-,N/A,,Clear,0,2014-01-02 22:34:00
4:53 PM,-7.6,-14.8,71,30.45,10.0,Calm,Calm,-,N/A,,Clear,0,2014-01-02 22:53:00
5:13 PM,-9.4,-14.8,77,30.45,10.0,Calm,Calm,-,N/A,,Clear,0,2014-01-02 23:13:00
5:34 PM,-9.4,-14.8,77,30.44,10.0,Calm,Calm,-,N/A,,Clear,0,2014-01-02 23:34:00
5:53 PM,-11.2,-16.6,77,30.43,10.0,SSE,3.5,-,N/A,,Clear,160,2014-01-02 23:53:00
6:13 PM,-11.2,-16.6,77,30.42,10.0,SSE,3.5,-,N/A,,Clear,150,2014-01-03 00:13:00
6:33 PM,-11.2,-16.6,77,30.41,10.0,SSE,3.5,-,N/A,,Clear,150,2014-01-03 00:33:00
6:53 PM,-13.0,-18.4,77,30.40,10.0,South,3.5,-,N/A,,Clear,170,2014-01-03 00:53:00
7:13 PM,-13.0,-18.4,77,30.39,10.0,SSE,4.6,-,N/A,,Clear,160,2014-01-03 01:13:00
7:33 PM,-13.0,-18.4,77,30.38,10.0,SSE,4.6,-,N/A,,Clear,150,2014-01-03 01:33:00
7:53 PM,-11.2,-16.6,77,30.38,10.0,SSE,4.6,-,N/A,,Clear,160,2014-01-03 01:53:00
8:13 PM,-13.0,-18.4,77,30.37,10.0,SSE,5.8,-,N/A,,Clear,160,2014-01-03 02:13:00
8:33 PM,-13.0,-18.4,77,30.36,10.0,South,5.8,-,N/A,,Clear,170,2014-01-03 02:33:00
8:53 PM,-11.2,-16.6,77,30.35,10.0,SSE,8.1,-,N/A,,Clear,160,2014-01-03 02:53:00
9:14 PM,-11.2,-16.6,77,30.34,10.0,SSE,6.9,-,N/A,,Clear,160,2014-01-03 03:14:00
9:33 PM,-11.2,-16.6,77,30.34,10.0,SSE,6.9,-,N/A,,Clear,160,2014-01-03 03:33:00
9:53 PM,-9.4,-14.8,77,30.33,10.0,SSE,8.1,-,N/A,,Clear,150,2014-01-03 03:53:00
10:14 PM,-9.4,-14.8,77,30.32,10.0,SSE,8.1,-,N/A,,Clear,150,2014-01-03 04:14:00
10:34 PM,-9.4,-14.8,77,30.31,10.0,SSE,8.1,-,N/A,,Clear,160,2014-01-03 04:34:00
10:53 PM,-9.4,-14.8,77,30.29,10.0,SSE,8.1,-,N/A,,Clear,160,2014-01-03 04:53:00
11:13 PM,-7.6,-14.8,71,30.27,10.0,SSE,6.9,-,N/A,,Clear,150,2014-01-03 05:13:00
11:33 PM,-7.6,-14.8,71,30.26,10.0,SSE,9.2,-,N/A,,Scattered Clouds,150,2014-01-03 05:33:00
11:54 PM,-7.6,-14.8,71,30.25,10.0,SE,8.1,-,N/A,,Clear,140,2014-01-03 05:54:00